Miscellaneous Local Product
Issued by NWS North Platte, NE

Home | Current Version | Previous Version | Text Only | Print | Product List | Glossary On
Versions: 1 2 3 4 5 6 7 8 9 10 11 12 13 14 15 16 17 18 19 20 21 22 23 24 25 26 27 28 29 30 31 32 33 34 35 36 37 38 39 40 41 42 43 44 45 46 47 48 49 50
456
AXUS43 KLBF 120910
MISLBF


WESTERN AND NORTH CENTRAL NEBRASKA HOURLY WEATHER ROUNDUP
NATIONAL WEATHER SERVICE NORTH PLATTE NE
300 AM CST TUE DEC 12 2017

NOTE: "FAIR" INDICATES FEW OR NO CLOUDS BELOW 12,000 FEET WITH NO
SIGNIFICANT WEATHER AND/OR OBSTRUCTIONS TO VISIBILITY.

NOTE: STATIONS NOT REPORTING VARIABLES SUCH AS SKY/WEATHER OR
PRESSURE ARE PROVIDED BY RAWS AND APRS NETWORKS AND ARE NOT UNDER
NATIONAL WEATHER SERVICE QUALITY CONTROL.

...OBSERVATIONS IN AND NEAR THE EASTERN PANHANDLE OF NEBRASKA...

CITY           SKY/WX    TMP DP  RH WIND       PRES   REMARKS
PINE RIDGE     CLOUDY    14  11  87 CALM      30.33F
GORDON         FAIR      20  18  89 CALM      30.32F
CHADRON        CLOUDY    16  12  84 SW5       30.35F WCI   9
ALLIANCE       CLOUDY    11   7  84 W6        30.34F WCI   1
SIDNEY         CLOUDY    23  12  62 W13       30.38F WCI  11
CRESCENT LAKE    N/A     19  13  76 CALM        N/A
$$

...OBSERVATIONS IN NORTHERN NEBRASKA AND FAR SOUTHERN SOUTH DAKOTA...

CITY           SKY/WX    TMP DP  RH WIND       PRES   REMARKS
WINNER         CLOUDY    36  30  79 W6        30.31F WCI  31
VALENTINE      CLOUDY    24  21  88 W7        30.33F WCI  16
THEDFORD       PTCLDY    24  22  91 W9        30.35F WCI  15
AINSWORTH      CLOUDY    34  29  82 NW5       30.32F WCI  30
O`NEILL        CLOUDY    20  20 100 W5        30.33F WCI  14
ORD            CLOUDY    32  28  85 SE3       30.35S
BROKEN BOW     CLOUDY    34  25  69 NW7       30.35S WCI  28
VALENTINE NWR    N/A     28  24  86 W6          N/A  WCI  22
HALSEY           N/A     27  22  81 W6          N/A  WCI  21
BUTTE            N/A     21  19  93 SW3         N/A
EWING            N/A     18  16  90 CALM        N/A
$$

...OBSERVATIONS IN SOUTHWEST NEBRASKA AND FAR NORTHEAST COLORADO...

CITY           SKY/WX    TMP DP  RH WIND       PRES   REMARKS
WRAY           FAIR      21  10  63 W9        30.41S WCI  11
HOLYOKE        FAIR      21  10  63 W5        30.39F WCI  15
IMPERIAL       CLOUDY    20  14  77 W6        30.41S WCI  12
OGALLALA       CLOUDY    17  13  84 W3        30.40S
MCCOOK         CLOUDY    23  18  81 W10       30.41S WCI  12
LEXINGTON      CLOUDY    23  20  88 W9        30.38S WCI  13
STAPLETON        N/A     22  19  88 CALM        N/A
GOTHENBURG       N/A     22  18  85 W5          N/A  WCI  16
CALLAWAY         N/A     24  20  84 NW5         N/A  WCI  18
$$

...OBSERVATIONS IN CENTRAL LINCOLN COUNTY AREA...

CITY           SKY/WX    TMP DP  RH WIND       PRES   REMARKS
N.P. DOWNTOWN    N/A     22  19  87 CALM        N/A
N.P. SOUTHEAST   N/A     23  19  85 CALM        N/A
N.P. HILLCREST   N/A     22  19  89 CALM        N/A
$$

...SOME OBSERVATIONS FROM AROUND THE REGION...

CITY           SKY/WX    TMP DP  RH WIND       PRES   REMARKS
DENVER         CLOUDY    31   9  39 SW13      30.42F WCI  21
GRAND JUNCTION CLOUDY    26   3  37 E3        30.53R
LARAMIE        CLOUDY    18   9  68 SW3       30.44S
CHEYENNE       CLOUDY    32  17  54 W9        30.39F WCI  24
CASPER         CLOUDY    26  16  65 W9        30.40F WCI  17
BISMARCK       CLOUDY    25  23  92 W3        30.24F
RAPID CITY     CLOUDY    21  15  78 CALM      30.31F
PIERRE         CLOUDY    32  31  96 SW5       30.29F WCI  27
SIOUX FALLS    CLOUDY    14  11  87 NW6       30.30F WCI   5
OMAHA          CLEAR     16   9  74 N7        30.37R WCI   6
GRAND ISLAND   CLOUDY    24  23  96 W5        30.39R WCI  18
SCOTTSBLUFF    CLOUDY    21  13  71 W7        30.38F WCI  12
KANSAS CITY    CLEAR     27  18  69 N14       30.31R WCI  16
HILL CITY      CLOUDY    29  22  75 NW12      30.42S WCI  19
WICHITA        CLEAR     35  28  75 N12       30.38R WCI  27
DODGE CITY     CLOUDY    26  19  74 NW10      30.43S WCI  16
OKLAHOMA CITY  CLEAR     39  28  64 N16       30.38R WCI  30
DALLAS         CLEAR     53  26  35 N17       30.28R
AMARILLO       CLEAR     30  11  45 N9        30.46R WCI  22
$$




USA.gov is the U.S. government's official web portal to all federal, state and local government web resources and services.